Time,TemperatureF,DewpointF,PressureIn,WindDirection,WindDirectionDegrees,WindSpeedMPH,WindSpeedGustMPH,Humidity,HourlyPrecipIn,Conditions,Clouds,dailyrainin,SoftwareType,DateUTC
2013-01-21 00:00:00,66.7,57.4,30.13,NE,56,0.0,0.0,72,0.00,CLR,OVC,0.00,WeatherDisplay:10.37,2013-01-21 05:00:00,
2013-01-21 00:03:00,66.8,57.5,30.13,NE,56,0.0,0.0,72,0.00,CLR,OVC,0.00,WeatherDisplay:10.37,2013-01-21 05:03:00,
2013-01-21 00:08:00,66.7,57.4,30.13,NE,56,0.0,0.0,72,0.00,CLR,OVC,0.00,WeatherDisplay:10.37,2013-01-21 05:08:00,
2013-01-21 00:13:00,66.4,57.5,30.13,NE,56,0.0,0.0,73,0.00,CLR,OVC,0.00,WeatherDisplay:10.37,2013-01-21 05:13:00,
2013-01-21 00:18:00,66.4,57.9,30.12,NE,56,0.0,0.0,74,0.00,CLR,OVC,0.00,WeatherDisplay:10.37,2013-01-21 05:18:00,
2013-01-21 00:23:00,66.4,57.9,30.12,NE,56,0.0,0.0,74,0.00,CLR,OVC,0.00,WeatherDisplay:10.37,2013-01-21 05:23:00,
2013-01-21 00:28:00,66.3,57.8,30.12,NE,56,0.0,0.0,74,0.00,CLR,OVC,0.00,WeatherDisplay:10.37,2013-01-21 05:28:00,
2013-01-21 00:34:00,66.1,57.6,30.12,NE,56,0.0,0.0,74,0.00,CLR,OVC,0.00,WeatherDisplay:10.37,2013-01-21 05:34:00,
2013-01-21 00:39:00,66.0,57.8,30.12,NW,320,0.0,0.0,75,0.00,CLR,OVC,0.00,WeatherDisplay:10.37,2013-01-21 05:39:00,
2013-01-21 00:44:00,65.9,57.7,30.12,NW,320,0.0,0.0,75,0.00,CLR,OVC,0.00,WeatherDisplay:10.37,2013-01-21 05:44:00,
2013-01-21 00:49:00,65.9,57.4,30.12,NW,320,0.0,0.0,74,0.00,CLR,OVC,0.00,WeatherDisplay:10.37,2013-01-21 05:49:00,
2013-01-21 00:54:00,65.8,57.7,30.11,NW,320,0.0,0.0,75,0.00,CLR,OVC,0.00,WeatherDisplay:10.37,2013-01-21 05:54:00,
2013-01-21 00:59:00,66.0,57.8,30.12,NW,320,0.0,0.0,75,0.00,CLR,OVC,0.00,WeatherDisplay:10.37,2013-01-21 05:59:00,
2013-01-21 01:04:00,66.0,57.8,30.12,NW,320,0.0,0.0,75,0.00,CLR,OVC,0.00,WeatherDisplay:10.37,2013-01-21 06:04:00,
2013-01-21 01:09:00,65.9,58.1,30.12,NW,320,0.0,0.0,76,0.00,CLR,OVC,0.00,WeatherDisplay:10.37,2013-01-21 06:09:00,
2013-01-21 01:14:00,66.0,58.2,30.12,NW,320,0.0,0.0,76,0.00,CLR,OVC,0.00,WeatherDisplay:10.37,2013-01-21 06:14:00,
2013-01-21 01:19:00,65.9,58.1,30.12,NW,320,0.0,0.0,76,0.00,CLR,OVC,0.00,WeatherDisplay:10.37,2013-01-21 06:19:00,
2013-01-21 01:24:00,65.9,58.1,30.11,NW,320,0.0,0.0,76,0.00,CLR,OVC,0.00,WeatherDisplay:10.37,2013-01-21 06:24:00,
2013-01-21 01:29:00,65.8,58.0,30.11,NW,320,0.0,0.0,76,0.00,CLR,OVC,0.00,WeatherDisplay:10.37,2013-01-21 06:29:00,
2013-01-21 01:34:00,65.7,58.3,30.11,NW,320,0.0,0.0,77,0.00,CLR,OVC,0.00,WeatherDisplay:10.37,2013-01-21 06:34:00,
2013-01-21 01:39:00,65.7,58.3,30.11,NW,320,0.0,0.0,77,0.00,CLR,OVC,0.00,WeatherDisplay:10.37,2013-01-21 06:39:00,
2013-01-21 01:44:00,65.4,58.0,30.11,NW,320,0.0,0.0,77,0.00,CLR,OVC,0.00,WeatherDisplay:10.37,2013-01-21 06:44:00,
2013-01-21 01:49:00,65.2,58.2,30.11,NW,320,0.0,0.0,78,0.00,CLR,OVC,0.00,WeatherDisplay:10.37,2013-01-21 06:49:00,
2013-01-21 01:54:00,65.1,58.1,30.11,NW,320,0.0,0.0,78,0.00,CLR,OVC,0.00,WeatherDisplay:10.37,2013-01-21 06:54:00,
2013-01-21 01:59:00,65.2,58.2,30.11,NW,320,0.0,0.0,78,0.00,CLR,OVC,0.00,WeatherDisplay:10.37,2013-01-21 06:59:00,
2013-01-21 02:04:00,65.2,58.5,30.11,NW,320,0.0,0.0,79,0.00,CLR,OVC,0.00,WeatherDisplay:10.37,2013-01-21 07:04:00,
2013-01-21 02:09:00,65.2,58.5,30.10,NW,320,0.0,0.0,79,0.00,CLR,OVC,0.00,WeatherDisplay:10.37,2013-01-21 07:09:00,
2013-01-21 02:14:00,65.2,58.5,30.10,NW,320,0.0,0.0,79,0.00,CLR,OVC,0.00,WeatherDisplay:10.37,2013-01-21 07:14:00,
2013-01-21 02:19:00,65.3,58.6,30.10,NW,320,0.0,0.0,79,0.00,CLR,OVC,0.00,WeatherDisplay:10.37,2013-01-21 07:19:00,
2013-01-21 02:24:00,65.2,58.9,30.10,NW,320,0.0,0.0,80,0.00,CLR,OVC,0.00,WeatherDisplay:10.37,2013-01-21 07:24:00,
2013-01-21 02:29:00,65.2,58.9,30.10,NW,320,0.0,0.0,80,0.00,CLR,OVC,0.00,WeatherDisplay:10.37,2013-01-21 07:29:00,
2013-01-21 02:34:00,65.3,59.0,30.10,NW,320,0.0,0.0,80,0.00,CLR,OVC,0.00,WeatherDisplay:10.37,2013-01-21 07:34:00,
2013-01-21 02:39:00,65.3,59.0,30.10,NW,320,0.0,0.0,80,0.00,CLR,OVC,0.00,WeatherDisplay:10.37,2013-01-21 07:39:00,
2013-01-21 02:44:00,65.3,59.0,30.10,NW,320,0.0,0.0,80,0.00,CLR,OVC,0.00,WeatherDisplay:10.37,2013-01-21 07:44:00,
2013-01-21 02:49:00,65.3,59.0,30.09,NW,320,0.0,0.0,80,0.00,CLR,OVC,0.00,WeatherDisplay:10.37,2013-01-21 07:49:00,
2013-01-21 02:54:00,65.4,59.1,30.09,NW,320,0.0,0.0,80,0.00,CLR,OVC,0.00,WeatherDisplay:10.37,2013-01-21 07:54:00,
2013-01-21 02:59:00,65.2,58.9,30.09,NW,320,0.0,0.0,80,0.00,CLR,OVC,0.00,WeatherDisplay:10.37,2013-01-21 07:59:00,
2013-01-21 03:04:00,65.2,58.9,30.09,NW,320,0.0,0.0,80,0.00,CLR,OVC,0.00,WeatherDisplay:10.37,2013-01-21 08:04:00,
2013-01-21 03:09:00,65.2,59.2,30.08,NW,320,0.0,0.0,81,0.00,CLR,OVC,0.00,WeatherDisplay:10.37,2013-01-21 08:09:00,
2013-01-21 03:14:00,64.9,58.9,30.08,NW,320,0.0,0.0,81,0.00,CLR,OVC,0.00,WeatherDisplay:10.37,2013-01-21 08:14:00,
2013-01-21 03:19:00,64.9,58.9,30.08,NW,320,0.0,0.0,81,0.00,CLR,OVC,0.00,WeatherDisplay:10.37,2013-01-21 08:19:00,
2013-01-21 03:24:00,64.9,58.9,30.08,NW,320,0.0,0.0,81,0.00,CLR,OVC,0.00,WeatherDisplay:10.37,2013-01-21 08:24:00,
2013-01-21 03:29:00,64.8,58.8,30.08,NW,320,0.0,0.0,81,0.00,CLR,OVC,0.00,WeatherDisplay:10.37,2013-01-21 08:29:00,
2013-01-21 03:34:00,64.8,58.8,30.08,NW,320,0.0,0.0,81,0.00,CLR,OVC,0.00,WeatherDisplay:10.37,2013-01-21 08:34:00,
2013-01-21 03:39:00,64.7,58.7,30.08,NW,320,0.0,0.0,81,0.00,CLR,OVC,0.00,WeatherDisplay:10.37,2013-01-21 08:39:00,
2013-01-21 03:44:00,64.7,59.1,30.08,NW,320,0.0,0.0,82,0.00,CLR,OVC,0.00,WeatherDisplay:10.37,2013-01-21 08:44:00,
2013-01-21 03:49:00,64.6,59.0,30.08,NW,320,0.0,0.0,82,0.00,CLR,OVC,0.00,WeatherDisplay:10.37,2013-01-21 08:49:00,
2013-01-21 03:54:00,64.5,58.9,30.08,NW,320,0.0,0.0,82,0.00,CLR,OVC,0.00,WeatherDisplay:10.37,2013-01-21 08:54:00,
2013-01-21 03:59:00,64.4,59.5,30.08,NW,320,0.0,0.0,84,0.00,CLR,OVC,0.00,WeatherDisplay:10.37,2013-01-21 08:59:00,
2013-01-21 04:04:00,64.4,59.8,30.08,NW,320,0.0,0.0,85,0.00,CLR,OVC,0.00,WeatherDisplay:10.37,2013-01-21 09:04:00,
2013-01-21 04:09:00,64.2,59.9,30.07,NW,320,0.0,0.0,86,0.00,CLR,OVC,0.00,WeatherDisplay:10.37,2013-01-21 09:09:00,
2013-01-21 04:14:00,64.1,59.8,30.07,NW,320,0.0,0.0,86,0.00,CLR,OVC,0.00,WeatherDisplay:10.37,2013-01-21 09:14:00,
2013-01-21 04:19:00,64.1,60.2,30.08,NW,320,0.0,0.0,87,0.00,CLR,OVC,0.00,WeatherDisplay:10.37,2013-01-21 09:19:00,
2013-01-21 04:24:00,64.1,60.5,30.08,NW,320,0.0,0.0,88,0.00,CLR,OVC,0.00,WeatherDisplay:10.37,2013-01-21 09:24:00,
2013-01-21 04:29:00,64.0,60.4,30.07,NW,320,0.0,0.0,88,0.00,CLR,OVC,0.00,WeatherDisplay:10.37,2013-01-21 09:29:00,
2013-01-21 04:34:00,63.9,60.3,30.07,NW,320,0.0,0.0,88,0.00,CLR,OVC,0.00,WeatherDisplay:10.37,2013-01-21 09:34:00,
2013-01-21 04:39:00,63.9,60.3,30.07,NW,320,0.0,0.0,88,0.00,CLR,OVC,0.00,WeatherDisplay:10.37,2013-01-21 09:39:00,
2013-01-21 04:44:00,63.9,60.3,30.07,NW,320,0.0,0.0,88,0.00,CLR,OVC,0.00,WeatherDisplay:10.37,2013-01-21 09:44:00,
2013-01-21 04:49:00,64.0,60.4,30.07,NW,320,0.0,0.0,88,0.00,CLR,OVC,0.00,WeatherDisplay:10.37,2013-01-21 09:49:00,
2013-01-21 04:54:00,63.9,60.3,30.07,NW,320,0.0,0.0,88,0.00,CLR,OVC,0.00,WeatherDisplay:10.37,2013-01-21 09:54:00,
2013-01-21 04:59:00,63.8,60.2,30.07,NW,320,0.0,0.0,88,0.00,CLR,OVC,0.00,WeatherDisplay:10.37,2013-01-21 09:59:00,
2013-01-21 05:04:00,63.8,60.2,30.07,NW,320,0.0,0.0,88,0.00,CLR,OVC,0.00,WeatherDisplay:10.37,2013-01-21 10:04:00,
2013-01-21 05:09:00,63.9,60.3,30.06,NW,320,0.0,0.0,88,0.00,CLR,OVC,0.00,WeatherDisplay:10.37,2013-01-21 10:09:00,
2013-01-21 05:14:00,63.9,60.3,30.06,NW,320,0.0,0.0,88,0.00,CLR,OVC,0.00,WeatherDisplay:10.37,2013-01-21 10:14:00,
2013-01-21 05:19:00,63.9,60.6,30.07,NW,320,0.0,0.0,89,0.00,CLR,OVC,0.00,WeatherDisplay:10.37,2013-01-21 10:19:00,
2013-01-21 05:24:00,63.9,60.3,30.07,NW,320,0.0,0.0,88,0.00,CLR,OVC,0.00,WeatherDisplay:10.37,2013-01-21 10:24:00,
2013-01-21 05:29:00,63.8,60.2,30.06,NW,320,0.0,0.0,88,0.00,CLR,OVC,0.00,WeatherDisplay:10.37,2013-01-21 10:29:00,
2013-01-21 05:34:00,63.8,60.2,30.06,NW,320,0.0,0.0,88,0.00,CLR,OVC,0.00,WeatherDisplay:10.37,2013-01-21 10:34:00,
2013-01-21 05:39:00,63.8,60.2,30.07,NW,320,0.0,0.0,88,0.00,CLR,OVC,0.00,WeatherDisplay:10.37,2013-01-21 10:39:00,
2013-01-21 05:44:00,63.6,60.0,30.07,NW,320,0.0,0.0,88,0.00,CLR,OVC,0.00,WeatherDisplay:10.37,2013-01-21 10:44:00,
2013-01-21 05:49:00,63.5,59.9,30.07,NW,320,0.0,0.0,88,0.00,CLR,OVC,0.00,WeatherDisplay:10.37,2013-01-21 10:49:00,
2013-01-21 05:54:00,63.7,60.1,30.08,NW,320,0.0,0.0,88,0.00,CLR,OVC,0.00,WeatherDisplay:10.37,2013-01-21 10:54:00,
2013-01-21 05:59:00,63.6,60.0,30.08,NW,320,0.0,0.0,88,0.00,CLR,OVC,0.00,WeatherDisplay:10.37,2013-01-21 10:59:00,
2013-01-21 06:04:00,63.6,59.7,30.08,NW,320,0.0,0.0,87,0.00,CLR,OVC,0.00,WeatherDisplay:10.37,2013-01-21 11:04:00,
2013-01-21 06:09:00,63.7,60.1,30.08,NW,320,0.0,0.0,88,0.00,CLR,OVC,0.00,WeatherDisplay:10.37,2013-01-21 11:09:00,
2013-01-21 06:14:00,63.8,60.2,30.08,NW,320,0.0,0.0,88,0.00,CLR,OVC,0.00,WeatherDisplay:10.37,2013-01-21 11:14:00,
2013-01-21 06:19:00,63.9,60.3,30.08,NW,320,0.0,0.0,88,0.00,CLR,OVC,0.00,WeatherDisplay:10.37,2013-01-21 11:19:00,
2013-01-21 06:24:00,63.9,60.3,30.08,NW,320,0.0,0.0,88,0.00,CLR,OVC,0.00,WeatherDisplay:10.37,2013-01-21 11:24:00,
2013-01-21 06:29:00,63.9,60.0,30.08,NW,320,0.0,0.0,87,0.00,CLR,OVC,0.00,WeatherDisplay:10.37,2013-01-21 11:29:00,
2013-01-21 06:34:00,63.7,60.1,30.08,NW,320,0.0,0.0,88,0.00,CLR,OVC,0.00,WeatherDisplay:10.37,2013-01-21 11:34:00,
2013-01-21 06:39:00,63.7,60.1,30.08,NW,320,0.0,0.0,88,0.00,CLR,OVC,0.00,WeatherDisplay:10.37,2013-01-21 11:39:00,
2013-01-21 06:44:00,63.7,59.8,30.09,NW,320,0.0,0.0,87,0.00,CLR,OVC,0.00,WeatherDisplay:10.37,2013-01-21 11:44:00,
2013-01-21 06:49:00,63.6,59.3,30.09,NW,320,0.0,0.0,86,0.00,CLR,OVC,0.00,WeatherDisplay:10.37,2013-01-21 11:49:00,
2013-01-21 06:54:00,63.6,59.7,30.09,NW,320,0.0,0.0,87,0.00,CLR,OVC,0.00,WeatherDisplay:10.37,2013-01-21 11:54:00,
2013-01-21 06:59:00,63.6,59.7,30.09,NW,320,0.0,0.0,87,0.00,CLR,OVC,0.00,WeatherDisplay:10.37,2013-01-21 11:59:00,
2013-01-21 07:04:00,63.8,59.9,30.09,NW,320,0.0,0.0,87,0.00,CLR,OVC,0.00,WeatherDisplay:10.37,2013-01-21 12:04:00,
2013-01-21 07:09:00,63.8,59.5,30.09,NW,320,0.0,0.0,86,0.00,CLR,OVC,0.00,WeatherDisplay:10.37,2013-01-21 12:09:00,
2013-01-21 07:15:00,63.8,59.8,30.10,NW,320,0.0,0.0,87,0.00,CLR,OVC,0.00,WeatherDisplay:10.37,2013-01-21 12:15:00,
2013-01-21 07:20:00,63.7,59.8,30.10,NW,320,0.0,0.0,87,0.00,CLR,OVC,0.00,WeatherDisplay:10.37,2013-01-21 12:20:00,
2013-01-21 07:25:00,63.6,59.7,30.10,NW,320,0.0,0.0,87,0.00,CLR,OVC,0.00,WeatherDisplay:10.37,2013-01-21 12:25:00,
2013-01-21 07:30:00,63.8,59.9,30.10,NW,320,0.0,0.0,87,0.00,CLR,OVC,0.00,WeatherDisplay:10.37,2013-01-21 12:30:00,
2013-01-21 07:35:00,63.9,60.3,30.10,NW,320,0.0,0.0,88,0.00,CLR,OVC,0.00,WeatherDisplay:10.37,2013-01-21 12:35:00,
2013-01-21 07:40:00,63.8,60.2,30.10,NW,320,0.0,0.0,88,0.00,CLR,OVC,0.00,WeatherDisplay:10.37,2013-01-21 12:40:00,
2013-01-21 07:45:00,63.8,60.2,30.10,NW,320,0.0,0.0,88,0.00,CLR,OVC,0.00,WeatherDisplay:10.37,2013-01-21 12:45:00,
2013-01-21 07:50:00,63.9,60.3,30.10,NW,320,0.0,0.0,88,0.00,CLR,OVC,0.00,WeatherDisplay:10.37,2013-01-21 12:50:00,
2013-01-21 07:55:00,64.0,60.4,30.11,NW,320,0.0,0.0,88,0.00,CLR,OVC,0.00,WeatherDisplay:10.37,2013-01-21 12:55:00,
2013-01-21 08:00:00,64.2,60.6,30.11,NW,320,0.0,0.0,88,0.00,CLR,OVC,0.00,WeatherDisplay:10.37,2013-01-21 13:00:00,
2013-01-21 08:05:00,64.2,60.6,30.11,NW,320,0.0,0.0,88,0.00,CLR,OVC,0.00,WeatherDisplay:10.37,2013-01-21 13:05:00,
2013-01-21 08:10:00,64.5,60.9,30.11,NW,320,0.0,0.0,88,0.00,CLR,OVC,0.00,WeatherDisplay:10.37,2013-01-21 13:10:00,
2013-01-21 08:15:00,64.6,61.0,30.11,NW,320,0.0,0.0,88,0.00,CLR,OVC,0.00,WeatherDisplay:10.37,2013-01-21 13:15:00,
2013-01-21 08:20:00,64.6,61.0,30.11,North,10,1.9,2.3,88,0.00,CLR,OVC,0.00,WeatherDisplay:10.37,2013-01-21 13:20:00,
2013-01-21 08:25:00,64.8,61.2,30.11,WNW,301,0.1,2.3,88,0.00,CLR,OVC,0.00,WeatherDisplay:10.37,2013-01-21 13:25:00,
2013-01-21 08:30:00,64.6,60.6,30.11,North,6,0.8,4.2,87,0.00,CLR,OVC,0.00,WeatherDisplay:10.37,2013-01-21 13:30:00,
2013-01-21 08:35:00,64.7,60.7,30.11,NNE,23,0.7,1.1,87,0.00,CLR,OVC,0.00,WeatherDisplay:10.37,2013-01-21 13:35:00,
2013-01-21 08:40:00,64.8,60.8,30.11,NE,41,1.8,3.5,87,0.00,CLR,OVC,0.00,WeatherDisplay:10.37,2013-01-21 13:40:00,
2013-01-21 08:45:00,65.1,61.1,30.11,NNE,16,0.0,0.0,87,0.00,CLR,OVC,0.00,WeatherDisplay:10.37,2013-01-21 13:45:00,
2013-01-21 08:50:00,65.3,61.0,30.11,NE,55,0.2,2.3,86,0.00,CLR,OVC,0.00,WeatherDisplay:10.37,2013-01-21 13:50:00,
2013-01-21 08:55:00,65.7,61.4,30.11,NE,35,3.2,5.3,86,0.00,CLR,OVC,0.00,WeatherDisplay:10.37,2013-01-21 13:55:00,
2013-01-21 09:00:00,65.8,60.8,30.11,East,85,2.8,4.6,84,0.00,CLR,OVC,0.00,WeatherDisplay:10.37,2013-01-21 14:00:00,
2013-01-21 09:05:00,66.0,60.7,30.12,NNW,335,0.0,1.1,83,0.00,CLR,OVC,0.00,WeatherDisplay:10.37,2013-01-21 14:05:00,
2013-01-21 09:10:00,66.3,60.6,30.12,NNW,335,0.0,0.0,82,0.00,CLR,OVC,0.00,WeatherDisplay:10.37,2013-01-21 14:10:00,
2013-01-21 09:15:00,66.4,60.4,30.11,NNW,335,0.0,0.0,81,0.00,CLR,OVC,0.00,WeatherDisplay:10.37,2013-01-21 14:15:00,
2013-01-21 09:20:00,66.8,60.4,30.12,North,0,0.0,1.1,80,0.00,CLR,OVC,0.00,WeatherDisplay:10.37,2013-01-21 14:20:00,
2013-01-21 09:25:00,67.2,60.5,30.12,North,0,0.0,0.0,79,0.00,CLR,OVC,0.00,WeatherDisplay:10.37,2013-01-21 14:25:00,
2013-01-21 09:30:00,67.4,60.3,30.12,North,0,0.0,0.0,78,0.00,CLR,OVC,0.00,WeatherDisplay:10.37,2013-01-21 14:30:00,
2013-01-21 09:35:00,67.8,60.7,30.12,North,0,0.0,0.0,78,0.00,CLR,OVC,0.00,WeatherDisplay:10.37,2013-01-21 14:35:00,
2013-01-21 09:40:00,68.1,60.6,30.13,North,3,0.1,3.5,77,0.00,CLR,OVC,0.00,WeatherDisplay:10.37,2013-01-21 14:40:00,
2013-01-21 09:45:00,68.4,60.9,30.13,ESE,120,0.0,0.0,77,0.00,CLR,OVC,0.00,WeatherDisplay:10.37,2013-01-21 14:45:00,
2013-01-21 09:50:00,68.8,60.9,30.13,ENE,76,0.0,0.0,76,0.00,CLR,OVC,0.00,WeatherDisplay:10.37,2013-01-21 14:50:00,
2013-01-21 09:55:00,69.2,61.3,30.13,ENE,76,0.0,0.0,76,0.00,CLR,OVC,0.00,WeatherDisplay:10.37,2013-01-21 14:55:00,
2013-01-21 10:00:00,69.6,61.7,30.14,ENE,76,0.0,0.0,76,0.00,CLR,OVC,0.00,WeatherDisplay:10.37,2013-01-21 15:00:00,
2013-01-21 10:05:00,69.8,61.5,30.14,ENE,76,0.0,0.0,75,0.00,CLR,OVC,0.00,WeatherDisplay:10.37,2013-01-21 15:05:00,
2013-01-21 10:10:00,69.8,61.1,30.14,ENE,76,0.0,0.0,74,0.00,CLR,OVC,0.00,WeatherDisplay:10.37,2013-01-21 15:10:00,
2013-01-21 10:15:00,70.2,61.9,30.13,NNE,24,2.9,4.6,75,0.00,CLR,OVC,0.00,WeatherDisplay:10.37,2013-01-21 15:15:00,
2013-01-21 10:20:00,70.6,62.3,30.13,NE,56,1.6,5.8,75,0.00,CLR,OVC,0.00,WeatherDisplay:10.37,2013-01-21 15:20:00,
2013-01-21 10:25:00,71.0,62.3,30.14,North,4,2.2,4.6,74,0.00,CLR,OVC,0.00,WeatherDisplay:10.37,2013-01-21 15:25:00,
2013-01-21 10:30:00,71.3,62.6,30.14,NE,49,0.2,2.3,74,0.00,CLR,OVC,0.00,WeatherDisplay:10.37,2013-01-21 15:30:00,
2013-01-21 10:35:00,71.5,62.4,30.14,East,88,0.0,0.0,73,0.00,CLR,OVC,0.00,WeatherDisplay:10.37,2013-01-21 15:35:00,
2013-01-21 10:40:00,71.7,62.2,30.14,NW,323,1.6,4.7,72,0.00,CLR,OVC,0.00,WeatherDisplay:10.37,2013-01-21 15:40:00,
2013-01-21 10:45:00,71.7,61.4,30.14,NNW,337,5.6,9.2,70,0.00,CLR,OVC,0.00,WeatherDisplay:10.37,2013-01-21 15:45:00,
2013-01-21 10:50:00,71.7,61.0,30.14,NNW,336,4.2,9.2,69,0.00,CLR,OVC,0.00,WeatherDisplay:10.37,2013-01-21 15:50:00,
2013-01-21 10:55:00,71.7,61.0,30.14,NNW,347,4.1,8.1,69,0.00,CLR,OVC,0.00,WeatherDisplay:10.37,2013-01-21 15:55:00,
2013-01-21 11:00:00,71.7,61.0,30.14,NNW,342,5.5,9.2,69,0.00,CLR,OVC,0.00,WeatherDisplay:10.37,2013-01-21 16:00:00,
2013-01-21 11:05:00,71.8,60.7,30.13,NNW,333,6.2,9.2,68,0.00,CLR,OVC,0.00,WeatherDisplay:10.37,2013-01-21 16:05:00,
2013-01-21 11:10:00,72.0,60.9,30.13,NW,318,4.6,6.9,68,0.00,CLR,OVC,0.00,WeatherDisplay:10.37,2013-01-21 16:10:00,
2013-01-21 11:15:00,72.1,60.5,30.13,NE,38,5.2,6.9,67,0.00,CLR,OVC,0.00,WeatherDisplay:10.37,2013-01-21 16:15:00,
2013-01-21 11:20:00,72.1,60.1,30.13,NW,312,6.0,9.2,66,0.00,CLR,OVC,0.00,WeatherDisplay:10.37,2013-01-21 16:20:00,
2013-01-21 11:25:00,72.3,60.7,30.13,NW,323,3.9,8.1,67,0.00,CLR,OVC,0.00,WeatherDisplay:10.37,2013-01-21 16:25:00,
2013-01-21 11:30:00,72.3,60.3,30.13,NW,308,3.2,8.1,66,0.00,CLR,OVC,0.00,WeatherDisplay:10.37,2013-01-21 16:30:00,
2013-01-21 11:35:00,72.3,60.3,30.13,NW,315,4.2,10.4,66,0.00,CLR,OVC,0.00,WeatherDisplay:10.37,2013-01-21 16:35:00,
2013-01-21 11:40:00,72.8,60.3,30.13,NW,312,6.3,9.2,65,0.00,CLR,OVC,0.00,WeatherDisplay:10.37,2013-01-21 16:40:00,
2013-01-21 11:45:00,72.6,59.7,30.13,WNW,291,7.2,11.5,64,0.00,CLR,OVC,0.00,WeatherDisplay:10.37,2013-01-21 16:45:00,
2013-01-21 11:50:00,72.1,59.7,30.13,NW,309,8.3,11.5,65,0.00,CLR,OVC,0.00,WeatherDisplay:10.37,2013-01-21 16:50:00,
2013-01-21 11:55:00,71.6,60.5,30.13,NW,304,3.6,6.2,68,0.00,CLR,OVC,0.00,WeatherDisplay:10.37,2013-01-21 16:55:00,
2013-01-21 12:00:00,71.5,60.4,30.13,NW,319,7.5,12.7,68,0.00,CLR,OVC,0.00,WeatherDisplay:10.37,2013-01-21 17:00:00,
2013-01-21 12:05:00,72.0,60.9,30.12,North,10,7.3,10.4,68,0.00,CLR,OVC,0.00,WeatherDisplay:10.37,2013-01-21 17:05:00,
2013-01-21 12:10:00,72.4,60.8,30.12,NW,323,6.9,10.4,67,0.00,CLR,OVC,0.00,WeatherDisplay:10.37,2013-01-21 17:10:00,
2013-01-21 12:15:00,72.3,60.7,30.11,NNW,330,4.0,9.2,67,0.00,CLR,OVC,0.00,WeatherDisplay:10.37,2013-01-21 17:15:00,
2013-01-21 12:20:00,72.5,60.5,30.11,NW,319,8.1,12.7,66,0.00,CLR,OVC,0.00,WeatherDisplay:10.37,2013-01-21 17:20:00,
2013-01-21 12:25:00,72.8,61.2,30.11,NW,311,7.1,12.7,67,0.00,CLR,OVC,0.00,WeatherDisplay:10.37,2013-01-21 17:25:00,
2013-01-21 12:30:00,73.2,60.7,30.10,NW,308,6.3,11.5,65,0.00,CLR,OVC,0.00,WeatherDisplay:10.37,2013-01-21 17:30:00,
2013-01-21 12:35:00,73.7,61.2,30.10,WNW,301,7.3,13.8,65,0.00,CLR,OVC,0.00,WeatherDisplay:10.37,2013-01-21 17:35:00,
2013-01-21 12:40:00,74.2,61.2,30.10,NW,325,3.0,8.1,64,0.00,CLR,OVC,0.00,WeatherDisplay:10.37,2013-01-21 17:40:00,
2013-01-21 12:45:00,74.9,61.5,30.10,NW,322,7.4,10.4,63,0.00,CLR,OVC,0.00,WeatherDisplay:10.37,2013-01-21 17:45:00,
2013-01-21 12:50:00,75.2,61.3,30.10,NW,318,8.5,12.7,62,0.00,CLR,OVC,0.00,WeatherDisplay:10.37,2013-01-21 17:50:00,
2013-01-21 12:55:00,74.8,60.9,30.09,NW,319,3.6,7.6,62,0.00,CLR,OVC,0.00,WeatherDisplay:10.37,2013-01-21 17:55:00,
2013-01-21 13:00:00,74.8,61.8,30.09,NW,319,6.5,10.4,64,0.00,CLR,OVC,0.00,WeatherDisplay:10.37,2013-01-21 18:00:00,
2013-01-21 13:05:00,75.4,61.9,30.09,NW,312,4.8,9.2,63,0.00,CLR,OVC,0.00,WeatherDisplay:10.37,2013-01-21 18:05:00,
2013-01-21 13:10:00,76.0,61.1,30.08,NNW,343,2.6,8.1,60,0.00,CLR,OVC,0.00,WeatherDisplay:10.37,2013-01-21 18:10:00,
2013-01-21 13:15:00,76.1,61.2,30.08,NE,37,7.5,12.7,60,0.00,CLR,OVC,0.00,WeatherDisplay:10.37,2013-01-21 18:15:00,
2013-01-21 13:20:00,75.5,61.1,30.08,North,3,6.6,9.2,61,0.00,CLR,OVC,0.00,WeatherDisplay:10.37,2013-01-21 18:20:00,
2013-01-21 13:25:00,74.8,61.4,30.08,NW,315,3.0,5.8,63,0.00,CLR,OVC,0.00,WeatherDisplay:10.37,2013-01-21 18:25:00,
2013-01-21 13:30:00,73.9,61.0,30.08,NNW,343,5.9,9.2,64,0.00,CLR,OVC,0.00,WeatherDisplay:10.37,2013-01-21 18:30:00,
2013-01-21 13:35:00,73.1,61.1,30.08,North,350,2.3,4.6,66,0.00,CLR,OVC,0.00,WeatherDisplay:10.37,2013-01-21 18:35:00,
2013-01-21 13:40:00,72.3,61.1,30.08,NW,318,5.9,9.2,68,0.00,CLR,OVC,0.00,WeatherDisplay:10.37,2013-01-21 18:40:00,
2013-01-21 13:45:00,72.0,61.3,30.08,North,360,4.2,9.2,69,0.00,CLR,OVC,0.00,WeatherDisplay:10.37,2013-01-21 18:45:00,
2013-01-21 13:50:00,72.1,61.4,30.08,NNW,332,6.8,9.2,69,0.00,CLR,OVC,0.00,WeatherDisplay:10.37,2013-01-21 18:50:00,
2013-01-21 13:55:00,72.5,61.7,30.08,West,281,7.2,10.4,69,0.00,CLR,OVC,0.00,WeatherDisplay:10.37,2013-01-21 18:55:00,
2013-01-21 14:00:00,73.3,61.3,30.08,WNW,296,7.6,10.8,66,0.00,CLR,OVC,0.00,WeatherDisplay:10.37,2013-01-21 19:00:00,
2013-01-21 14:06:00,73.8,61.7,30.08,NNE,16,6.4,10.4,66,0.00,CLR,OVC,0.00,WeatherDisplay:10.37,2013-01-21 19:06:00,
2013-01-21 14:11:00,74.3,61.3,30.08,NNW,328,6.0,10.4,64,0.00,CLR,OVC,0.00,WeatherDisplay:10.37,2013-01-21 19:11:00,
2013-01-21 14:16:00,74.6,61.6,30.08,NW,318,5.1,9.2,64,0.00,CLR,OVC,0.00,WeatherDisplay:10.37,2013-01-21 19:16:00,
2013-01-21 14:21:00,74.8,61.4,30.07,NW,320,5.5,11.5,63,0.00,CLR,OVC,0.00,WeatherDisplay:10.37,2013-01-21 19:21:00,
2013-01-21 14:26:00,74.0,61.5,30.07,NNW,330,6.4,11.5,65,0.00,CLR,OVC,0.00,WeatherDisplay:10.37,2013-01-21 19:26:00,
2013-01-21 14:31:00,74.2,62.1,30.07,NW,305,3.9,7.5,66,0.00,CLR,OVC,0.00,WeatherDisplay:10.37,2013-01-21 19:31:00,
2013-01-21 14:36:00,73.4,61.3,30.07,WNW,294,6.7,9.2,66,0.00,CLR,OVC,0.00,WeatherDisplay:10.37,2013-01-21 19:36:00,
2013-01-21 14:41:00,73.0,61.0,30.07,NNW,335,5.1,11.5,66,0.00,CLR,OVC,0.00,WeatherDisplay:10.37,2013-01-21 19:41:00,
2013-01-21 14:46:00,72.7,61.1,30.07,NNW,337,4.8,9.2,67,0.00,CLR,OVC,0.00,WeatherDisplay:10.37,2013-01-21 19:46:00,
2013-01-21 14:51:00,72.5,61.3,30.07,WNW,288,7.1,9.2,68,0.00,CLR,OVC,0.00,WeatherDisplay:10.37,2013-01-21 19:51:00,
2013-01-21 14:56:00,72.3,61.1,30.07,NNW,330,4.6,11.5,68,0.00,CLR,OVC,0.00,WeatherDisplay:10.37,2013-01-21 19:56:00,
2013-01-21 15:01:00,72.5,61.7,30.07,NW,325,4.4,6.9,69,0.00,CLR,OVC,0.00,WeatherDisplay:10.37,2013-01-21 20:01:00,
2013-01-21 15:06:00,72.7,61.5,30.07,NNW,328,3.9,6.9,68,0.00,CLR,OVC,0.00,WeatherDisplay:10.37,2013-01-21 20:06:00,
2013-01-21 15:11:00,73.2,62.0,30.07,NNW,346,4.1,9.4,68,0.00,CLR,OVC,0.00,WeatherDisplay:10.37,2013-01-21 20:11:00,
2013-01-21 15:16:00,73.3,62.1,30.07,NW,308,5.9,8.1,68,0.00,CLR,OVC,0.00,WeatherDisplay:10.37,2013-01-21 20:16:00,
2013-01-21 15:21:00,73.1,61.1,30.07,West,267,5.0,8.1,66,0.00,CLR,OVC,0.00,WeatherDisplay:10.37,2013-01-21 20:21:00,
2013-01-21 15:26:00,72.8,60.8,30.07,NNW,328,6.7,13.8,66,0.00,CLR,OVC,0.00,WeatherDisplay:10.37,2013-01-21 20:26:00,
2013-01-21 15:31:00,72.6,61.0,30.07,NW,323,5.9,11.5,67,0.00,CLR,OVC,0.00,WeatherDisplay:10.37,2013-01-21 20:31:00,
2013-01-21 15:36:00,72.4,61.2,30.07,North,353,6.4,10.4,68,0.00,CLR,OVC,0.00,WeatherDisplay:10.37,2013-01-21 20:36:00,
2013-01-21 15:41:00,72.1,61.4,30.07,NW,304,4.3,11.5,69,0.00,CLR,OVC,0.00,WeatherDisplay:10.37,2013-01-21 20:41:00,
2013-01-21 15:46:00,71.8,61.9,30.07,North,360,6.8,9.2,71,0.00,CLR,OVC,0.00,WeatherDisplay:10.37,2013-01-21 20:46:00,
2013-01-21 15:51:00,71.5,62.0,30.07,NNW,347,7.1,11.5,72,0.00,CLR,OVC,0.00,WeatherDisplay:10.37,2013-01-21 20:51:00,
2013-01-21 15:56:00,71.5,61.6,30.07,North,8,6.3,12.7,71,0.00,CLR,OVC,0.00,WeatherDisplay:10.37,2013-01-21 20:56:00,
2013-01-21 16:01:00,71.5,61.2,30.07,NW,319,5.8,12.7,70,0.00,CLR,OVC,0.00,WeatherDisplay:10.37,2013-01-21 21:01:00,
2013-01-21 16:06:00,71.3,61.0,30.08,North,0,4.4,8.1,70,0.00,CLR,OVC,0.00,WeatherDisplay:10.37,2013-01-21 21:06:00,
2013-01-21 16:11:00,70.9,60.6,30.07,NW,311,7.7,13.8,70,0.00,CLR,OVC,0.00,WeatherDisplay:10.37,2013-01-21 21:11:00,
2013-01-21 16:16:00,70.6,60.3,30.08,WNW,301,4.5,9.2,70,0.00,CLR,OVC,0.00,WeatherDisplay:10.37,2013-01-21 21:16:00,
2013-01-21 16:21:00,70.3,59.6,30.08,North,360,4.4,10.4,69,0.00,CLR,OVC,0.00,WeatherDisplay:10.37,2013-01-21 21:21:00,
2013-01-21 16:26:00,70.0,59.4,30.08,NW,319,4.5,11.5,69,0.00,CLR,OVC,0.00,WeatherDisplay:10.37,2013-01-21 21:26:00,
2013-01-21 16:31:00,69.7,59.5,30.08,North,3,6.7,11.5,70,0.00,CLR,OVC,0.00,WeatherDisplay:10.37,2013-01-21 21:31:00,
2013-01-21 16:36:00,69.9,59.3,30.08,NNW,328,6.9,9.2,69,0.00,CLR,OVC,0.00,WeatherDisplay:10.37,2013-01-21 21:36:00,
2013-01-21 16:41:00,70.1,59.0,30.08,NNW,333,6.5,11.5,68,0.00,CLR,OVC,0.00,WeatherDisplay:10.37,2013-01-21 21:41:00,
2013-01-21 16:46:00,70.3,59.2,30.08,NW,326,6.7,10.4,68,0.00,CLR,OVC,0.00,WeatherDisplay:10.37,2013-01-21 21:46:00,
2013-01-21 16:51:00,70.2,59.1,30.08,NNW,343,5.2,11.5,68,0.00,CLR,OVC,0.00,WeatherDisplay:10.37,2013-01-21 21:51:00,
2013-01-21 16:56:00,69.8,58.3,30.08,NNW,335,4.6,6.9,67,0.00,CLR,OVC,0.00,WeatherDisplay:10.37,2013-01-21 21:56:00,
2013-01-21 17:01:00,69.4,58.0,30.08,NNW,347,7.4,12.7,67,0.00,CLR,OVC,0.00,WeatherDisplay:10.37,2013-01-21 22:01:00,
2013-01-21 17:06:00,69.0,58.0,30.08,North,11,4.1,6.9,68,0.00,CLR,OVC,0.00,WeatherDisplay:10.37,2013-01-21 22:06:00,
2013-01-21 17:11:00,68.7,57.3,30.08,NW,308,7.3,12.7,67,0.00,CLR,OVC,0.00,WeatherDisplay:10.37,2013-01-21 22:11:00,
2013-01-21 17:16:00,68.5,57.1,30.08,ESE,104,5.6,9.2,67,0.00,CLR,OVC,0.00,WeatherDisplay:10.37,2013-01-21 22:16:00,
2013-01-21 17:21:00,68.3,56.9,30.08,NNW,342,3.6,9.2,67,0.00,CLR,OVC,0.00,WeatherDisplay:10.37,2013-01-21 22:21:00,
2013-01-21 17:26:00,68.0,57.0,30.08,NNE,18,5.3,11.5,68,0.00,CLR,OVC,0.00,WeatherDisplay:10.37,2013-01-21 22:26:00,
2013-01-21 17:31:00,67.9,57.4,30.08,NNW,344,4.7,7.1,69,0.00,CLR,OVC,0.00,WeatherDisplay:10.37,2013-01-21 22:31:00,
2013-01-21 17:36:00,67.4,56.9,30.08,North,10,5.6,12.7,69,0.00,CLR,OVC,0.00,WeatherDisplay:10.37,2013-01-21 22:36:00,
2013-01-21 17:41:00,67.3,56.8,30.08,North,359,3.8,8.1,69,0.00,CLR,OVC,0.00,WeatherDisplay:10.37,2013-01-21 22:41:00,
2013-01-21 17:46:00,67.1,57.0,30.08,North,6,4.6,13.8,70,0.00,CLR,OVC,0.00,WeatherDisplay:10.37,2013-01-21 22:46:00,
2013-01-21 17:51:00,67.0,56.9,30.09,North,350,3.3,8.1,70,0.00,CLR,OVC,0.00,WeatherDisplay:10.37,2013-01-21 22:51:00,
2013-01-21 17:56:00,66.9,56.8,30.09,North,11,3.9,10.4,70,0.00,CLR,OVC,0.00,WeatherDisplay:10.37,2013-01-21 22:56:00,
2013-01-21 18:01:00,66.5,56.0,30.09,North,360,5.7,10.4,69,0.00,CLR,OVC,0.00,WeatherDisplay:10.37,2013-01-21 23:01:00,
2013-01-21 18:06:00,66.3,55.8,30.09,NNW,335,4.0,6.9,69,0.00,CLR,OVC,0.00,WeatherDisplay:10.37,2013-01-21 23:06:00,
2013-01-21 18:11:00,66.3,56.2,30.09,NW,326,5.0,9.2,70,0.00,CLR,OVC,0.00,WeatherDisplay:10.37,2013-01-21 23:11:00,
2013-01-21 18:16:00,66.1,56.0,30.09,NW,306,1.1,6.8,70,0.00,CLR,OVC,0.00,WeatherDisplay:10.37,2013-01-21 23:16:00,
2013-01-21 18:21:00,66.0,55.9,30.09,North,356,3.8,10.4,70,0.00,CLR,OVC,0.00,WeatherDisplay:10.37,2013-01-21 23:21:00,
2013-01-21 18:26:00,66.0,55.9,30.09,NNW,339,2.1,4.6,70,0.00,CLR,OVC,0.00,WeatherDisplay:10.37,2013-01-21 23:26:00,
2013-01-21 18:31:00,65.9,56.2,30.09,NNW,329,2.6,6.9,71,0.00,CLR,OVC,0.00,WeatherDisplay:10.37,2013-01-21 23:31:00,
2013-01-21 18:36:00,65.8,56.1,30.09,NNW,335,2.8,4.6,71,0.00,CLR,OVC,0.00,WeatherDisplay:10.37,2013-01-21 23:36:00,
2013-01-21 18:41:00,65.6,55.9,30.09,NW,315,5.2,9.2,71,0.00,CLR,OVC,0.00,WeatherDisplay:10.37,2013-01-21 23:41:00,
2013-01-21 18:46:00,65.5,55.8,30.09,North,0,2.5,8.1,71,0.00,CLR,OVC,0.00,WeatherDisplay:10.37,2013-01-21 23:46:00,
2013-01-21 18:51:00,65.4,55.4,30.09,North,353,5.0,9.2,70,0.00,CLR,OVC,0.00,WeatherDisplay:10.37,2013-01-21 23:51:00,
2013-01-21 18:56:00,65.4,55.7,30.08,North,360,5.4,8.1,71,0.00,CLR,OVC,0.00,WeatherDisplay:10.37,2013-01-21 23:56:00,
2013-01-21 19:01:00,65.2,55.9,30.08,North,360,4.0,5.8,72,0.00,CLR,OVC,0.00,WeatherDisplay:10.37,2013-01-22 00:01:00,
2013-01-21 19:06:00,65.1,55.8,30.09,NNW,332,4.1,5.8,72,0.00,CLR,OVC,0.00,WeatherDisplay:10.37,2013-01-22 00:06:00,
2013-01-21 19:11:00,65.1,55.8,30.08,NNW,340,3.1,4.6,72,0.00,CLR,OVC,0.00,WeatherDisplay:10.37,2013-01-22 00:11:00,
2013-01-21 19:16:00,64.9,56.0,30.09,NNW,328,3.1,6.9,73,0.00,CLR,OVC,0.00,WeatherDisplay:10.37,2013-01-22 00:16:00,
2013-01-21 19:21:00,65.1,55.8,30.09,NNW,332,2.2,4.6,72,0.00,CLR,OVC,0.00,WeatherDisplay:10.37,2013-01-22 00:21:00,
2013-01-21 19:26:00,65.1,56.6,30.09,NW,316,3.4,5.5,74,0.00,CLR,OVC,0.00,WeatherDisplay:10.37,2013-01-22 00:26:00,
2013-01-21 19:31:00,65.0,55.8,30.09,North,11,2.5,4.6,72,0.00,CLR,OVC,0.00,WeatherDisplay:10.37,2013-01-22 00:31:00,
2013-01-21 19:36:00,64.9,55.7,30.08,NW,326,2.8,6.9,72,0.00,CLR,OVC,0.00,WeatherDisplay:10.37,2013-01-22 00:36:00,
2013-01-21 19:41:00,64.7,55.5,30.08,NNW,330,4.4,4.6,72,0.00,CLR,OVC,0.00,WeatherDisplay:10.37,2013-01-22 00:41:00,
2013-01-21 19:46:00,64.7,55.5,30.09,NW,323,4.3,8.1,72,0.00,CLR,OVC,0.00,WeatherDisplay:10.37,2013-01-22 00:46:00,
2013-01-21 19:51:00,64.7,55.5,30.09,NNW,336,2.9,6.9,72,0.00,CLR,OVC,0.00,WeatherDisplay:10.37,2013-01-22 00:51:00,
2013-01-21 19:56:00,64.6,56.1,30.09,North,8,3.6,3.6,74,0.00,CLR,OVC,0.00,WeatherDisplay:10.37,2013-01-22 00:56:00,
2013-01-21 20:01:00,64.5,55.7,30.09,NNW,333,1.6,2.3,73,0.00,CLR,OVC,0.00,WeatherDisplay:10.37,2013-01-22 01:01:00,
2013-01-21 20:06:00,64.4,55.6,30.09,North,350,1.9,5.8,73,0.00,CLR,OVC,0.00,WeatherDisplay:10.37,2013-01-22 01:06:00,
2013-01-21 20:11:00,64.4,55.9,30.09,NNW,342,1.0,3.5,74,0.00,CLR,OVC,0.00,WeatherDisplay:10.37,2013-01-22 01:11:00,
2013-01-21 20:16:00,64.3,56.2,30.09,NNE,13,4.1,4.1,75,0.00,CLR,OVC,0.00,WeatherDisplay:10.37,2013-01-22 01:16:00,
2013-01-21 20:21:00,64.1,56.0,30.10,NNW,328,0.7,4.6,75,0.00,CLR,OVC,0.00,WeatherDisplay:10.37,2013-01-22 01:21:00,
2013-01-21 20:26:00,64.0,55.9,30.10,NNW,333,2.1,4.6,75,0.00,CLR,OVC,0.00,WeatherDisplay:10.37,2013-01-22 01:26:00,
2013-01-21 20:31:00,63.8,55.7,30.10,NW,320,4.8,6.9,75,0.00,CLR,OVC,0.00,WeatherDisplay:10.37,2013-01-22 01:31:00,
2013-01-21 20:36:00,63.7,56.0,30.10,NW,320,1.2,3.5,76,0.00,CLR,OVC,0.00,WeatherDisplay:10.37,2013-01-22 01:36:00,
2013-01-21 20:41:00,63.8,56.1,30.10,North,360,0.0,2.3,76,0.00,CLR,OVC,0.00,WeatherDisplay:10.37,2013-01-22 01:41:00,
2013-01-21 20:46:00,63.7,56.4,30.10,WNW,302,3.2,4.6,77,0.00,CLR,OVC,0.00,WeatherDisplay:10.37,2013-01-22 01:46:00,
2013-01-21 20:51:00,63.8,56.4,30.11,North,352,5.1,9.2,77,0.00,CLR,OVC,0.00,WeatherDisplay:10.37,2013-01-22 01:51:00,
2013-01-21 20:56:00,63.7,56.7,30.11,North,360,5.1,8.1,78,0.00,CLR,OVC,0.00,WeatherDisplay:10.37,2013-01-22 01:56:00,
2013-01-21 21:01:00,63.5,56.2,30.11,North,352,3.7,5.8,77,0.00,CLR,OVC,0.00,WeatherDisplay:10.37,2013-01-22 02:01:00,
2013-01-21 21:06:00,63.5,56.2,30.11,North,359,3.3,5.8,77,0.00,CLR,OVC,0.00,WeatherDisplay:10.37,2013-01-22 02:06:00,
2013-01-21 21:11:00,63.5,56.2,30.12,North,1,5.5,9.2,77,0.00,CLR,OVC,0.00,WeatherDisplay:10.37,2013-01-22 02:11:00,
2013-01-21 21:16:00,63.5,56.2,30.11,NNE,17,0.0,6.9,77,0.00,CLR,OVC,0.00,WeatherDisplay:10.37,2013-01-22 02:16:00,
2013-01-21 21:21:00,63.5,55.8,30.12,NNW,339,5.5,10.4,76,0.00,CLR,OVC,0.00,WeatherDisplay:10.37,2013-01-22 02:21:00,
2013-01-21 21:26:00,63.4,55.7,30.12,NNW,328,2.6,9.2,76,0.00,CLR,OVC,0.00,WeatherDisplay:10.37,2013-01-22 02:26:00,
2013-01-21 21:31:00,63.4,55.7,30.12,North,356,3.6,9.2,76,0.00,CLR,OVC,0.00,WeatherDisplay:10.37,2013-01-22 02:31:00,
2013-01-21 21:36:00,63.4,55.7,30.13,WNW,292,4.1,12.7,76,0.00,CLR,OVC,0.00,WeatherDisplay:10.37,2013-01-22 02:36:00,
2013-01-21 21:41:00,63.3,55.6,30.13,NW,320,3.8,9.2,76,0.00,CLR,OVC,0.00,WeatherDisplay:10.37,2013-01-22 02:41:00,
2013-01-21 21:46:00,63.4,55.7,30.13,NW,308,6.9,10.4,76,0.00,CLR,OVC,0.00,WeatherDisplay:10.37,2013-01-22 02:46:00,
2013-01-21 21:51:00,63.4,55.7,30.13,NNW,336,7.5,12.7,76,0.00,CLR,OVC,0.00,WeatherDisplay:10.37,2013-01-22 02:51:00,
2013-01-21 21:56:00,63.4,55.3,30.13,WNW,299,4.4,7.6,75,0.00,CLR,OVC,0.00,WeatherDisplay:10.37,2013-01-22 02:56:00,
2013-01-21 22:01:00,63.1,54.7,30.13,NNW,342,4.0,8.1,74,0.00,CLR,OVC,0.00,WeatherDisplay:10.37,2013-01-22 03:01:00,
2013-01-21 22:06:00,63.3,55.2,30.13,North,360,4.1,12.7,75,0.00,CLR,OVC,0.00,WeatherDisplay:10.37,2013-01-22 03:06:00,
2013-01-21 22:11:00,63.0,54.6,30.13,North,354,6.3,12.7,74,0.00,CLR,OVC,0.00,WeatherDisplay:10.37,2013-01-22 03:11:00,
2013-01-21 22:16:00,63.1,55.0,30.14,NW,309,5.5,6.9,75,0.00,CLR,OVC,0.00,WeatherDisplay:10.37,2013-01-22 03:16:00,
2013-01-21 22:21:00,63.0,54.9,30.14,NNW,328,7.2,12.5,75,0.00,CLR,OVC,0.00,WeatherDisplay:10.37,2013-01-22 03:21:00,
2013-01-21 22:26:00,63.0,54.9,30.14,North,3,5.7,6.3,75,0.00,CLR,OVC,0.00,WeatherDisplay:10.37,2013-01-22 03:26:00,
2013-01-21 22:31:00,62.8,54.4,30.14,NNW,346,8.7,13.8,74,0.00,CLR,OVC,0.00,WeatherDisplay:10.37,2013-01-22 03:31:00,
2013-01-21 22:36:00,62.8,54.4,30.14,NW,325,8.3,15.0,74,0.00,CLR,OVC,0.00,WeatherDisplay:10.37,2013-01-22 03:36:00,
2013-01-21 22:41:00,62.8,54.8,30.14,NNE,20,6.7,16.1,75,0.00,CLR,OVC,0.00,WeatherDisplay:10.37,2013-01-22 03:41:00,
2013-01-21 22:46:00,62.7,54.7,30.13,NNW,335,5.9,9.2,75,0.00,CLR,OVC,0.00,WeatherDisplay:10.37,2013-01-22 03:46:00,
2013-01-21 22:51:00,62.7,54.7,30.13,West,268,4.9,11.5,75,0.00,CLR,OVC,0.00,WeatherDisplay:10.37,2013-01-22 03:51:00,
2013-01-21 22:56:00,62.6,54.6,30.13,NNE,14,7.1,9.2,75,0.00,CLR,OVC,0.00,WeatherDisplay:10.37,2013-01-22 03:56:00,
2013-01-21 23:01:00,62.6,54.9,30.13,North,6,4.1,6.9,76,0.00,CLR,OVC,0.00,WeatherDisplay:10.37,2013-01-22 04:01:00,
2013-01-21 23:06:00,62.5,54.5,30.13,NW,319,6.1,10.4,75,0.00,CLR,OVC,0.00,WeatherDisplay:10.37,2013-01-22 04:06:00,
2013-01-21 23:11:00,62.5,54.5,30.14,NW,322,4.1,9.2,75,0.00,CLR,OVC,0.00,WeatherDisplay:10.37,2013-01-22 04:11:00,
2013-01-21 23:16:00,62.5,54.5,30.14,NNE,13,6.0,9.2,75,0.00,CLR,OVC,0.00,WeatherDisplay:10.37,2013-01-22 04:16:00,
2013-01-21 23:21:00,62.4,54.4,30.14,NNW,339,3.9,6.9,75,0.00,CLR,OVC,0.00,WeatherDisplay:10.37,2013-01-22 04:21:00,
2013-01-21 23:26:00,62.5,54.1,30.14,North,356,4.3,6.9,74,0.00,CLR,OVC,0.00,WeatherDisplay:10.37,2013-01-22 04:26:00,
2013-01-21 23:31:00,62.5,54.1,30.14,North,353,5.0,8.1,74,0.00,CLR,OVC,0.00,WeatherDisplay:10.37,2013-01-22 04:31:00,
2013-01-21 23:36:00,62.5,54.1,30.14,NW,308,2.9,9.2,74,0.00,CLR,OVC,0.00,WeatherDisplay:10.37,2013-01-22 04:36:00,
2013-01-21 23:41:00,62.6,54.2,30.14,North,8,5.4,11.5,74,0.00,CLR,OVC,0.00,WeatherDisplay:10.37,2013-01-22 04:41:00,
2013-01-21 23:46:00,62.5,54.1,30.13,WNW,302,3.1,8.1,74,0.00,CLR,OVC,0.00,WeatherDisplay:10.37,2013-01-22 04:46:00,
2013-01-21 23:51:00,62.5,54.1,30.13,NW,305,7.2,13.8,74,0.00,CLR,OVC,0.00,WeatherDisplay:10.37,2013-01-22 04:51:00,
2013-01-21 23:56:00,62.5,53.7,30.13,NNW,336,6.0,12.7,73,0.00,CLR,OVC,0.00,WeatherDisplay:10.37,2013-01-22 04:56:00,